COSMOS 2251 DEB, 37971

Orbit data source: Space-Track

COSMOS 2251 DEB, 37971 is space debris in LEO originally from a launch on Wed, 16 Jun 1993 UTC launched from the Plesetsk Missile And Space Complex (PKMTR). The debris from Iridium 33, an American commercial communications satellite, has been tracked extensively since its accidental collision with the defunct Russian satellite Cosmos 2251 in 2009. This event, occurring at high speed in low Earth orbit (LEO), generated thousands of pieces of space debris, significantly increasing the risk of further collisions. The Iridium 33 debris cloud has impacted space traffic management and orbital debris mitigation strategies, making it a subject of ongoing study in space situational awareness.

Loading next visibility...
Identifier
37971, 1993-036BPW
Orbit
LEO
Country
Flag of CISCIS
Related business
Manufacturer
Unknown
Mission
Spacecraft
Bus & Motor
Unknown
Mass
Unknown
Launch date (UTC)
1993-06-16 (33 years ago)
Launch vehicle
Unknown
Launch site
Plesetsk Missile And Space Complex (PKMTR)
Object type
Payload
Rocket body
Debris
Shape & HBR
Unknown shape, 0.1 m
Radar Cross Section
Small (<0.1 m²)

Expand to show TLE details & history
Last TLE update: 2 weeks ago

TLE from 2 weeks ago
0 COSMOS 2251 DEB
1 37971U 93036BPW 26109.84699838  .00003284  00000-0  82206-3 0  9999
2 37971  73.9915 160.6783 0069471 266.6510  92.6702 14.50419265625340
Epoch: 2026-04-19T20:19Z
TLE epoch observation values (Epoch: 2026-04-19T20:19:40.660Z)
Latitude
0.00005°
Longitude
7.81328°
Altitude
729.546 km
Speed
7.489 km/s
True Right ascension
10h 42m 42s
True Declination
0° 00' 00"
Sunlit
Object was in full shadow at epoch
Visualization orbit readout
Latitude
Unknown
Longitude
Unknown
Altitude
Unknown
Speed
Unknown
Apparent Right ascension
Unknown
Apparent Declination
Unknown
Sunlit
N/A
Visualization observer readout
Local Sidereal Time
07:16:57
Azimuth
Unknown
Elevation
Unknown
Doppler factor
Unknown
Orbital elements
Apogee altitude
771.216 km
Perigee altitude
672.567 km
Semi-major axis
7,100.028 km
Eccentricity
0.00695
Inclination
73.9915°
RAAN
160.6783°
Arg. of periapsis
266.651°
True anomaly
93.46507°
Mean anomaly
92.6702°
Eccentric anomaly
93.06767°
Mean motion
3.62788 °/min
Orbital period
99.23 mins
BSTAR
0.00082206
Loading maneuver chart data...
Computing Atmospheric mass density...
Loading historical data...
Loading historical data...
Loading historical data...
Loading historical data...
Loading historical data...
Loading historical data...
Loading historical data...

Documentation

Showing up to 5 results
|